Weather History for KDYS - November, 2012

Change the Weather History Date:

Friday, November 30, 2012

  Actual Average Record
Temperature  
Mean Temperature 64 °F -  
Max Temperature 76 °F 60 °F 78 °F (2014)
Min Temperature 53 °F 39 °F 23 °F (2006)
Growing Degree Days 14 (Base 50)    
Moisture  
Dew Point 51 °F    
Average Humidity 70    
Maximum Humidity 94    
Minimum Humidity 38    
Precipitation  
Precipitation 0.00 in - - ()
Sea Level Pressure  
Sea Level Pressure 30.01 in    
Wind  
Wind Speed 12 mph (South)    
Max Wind Speed 15 mph    
Max Gust Speed 22 mph    
Visibility 10 miles    
Events      
Averages and records for this station are not official NWS values.
T = Trace of Precipitation, MM = Missing Value Source: NWS Daily Summary

Daily Weather History Graph

Daily Weather History Graph

Search for Another Location

Airport or City:

Trip Planner

Search our weather history database for the weather conditions in past years. The results will help you decide how hot, cold, wet, or windy it might be!

Date:

Astronomy

Nov. 30, 2012 Rise Set
Actual Time 7:22 AM CST 5:33 PM CST
Civil Twilight 6:55 AM CST 6:00 PM CST
Nautical Twilight 6:25 AM CST 6:30 PM CST
Astronomical Twilight 5:55 AM CST 7:00 PM CST
Moon 7:29 PM CST (11/30) 8:56 AM CST (11/30)
Length of Visible Light 11h 04m
Length of Day
10h 11m
Waning Gibbous, 96% of the Moon is Illuminated
Nov 30
Waning Gibbous
Dec 6
Last Quarter
Dec 13
New
Dec 19
First Quarter
Dec 28
Full

Hourly Weather History & Observations

Time (CST) Temp. Dew Point Humidity Pressure Visibility Wind Dir Wind Speed Gust Speed Precip Events Conditions
12:55 AM 56.5 °F 51.1 °F 82% 30.04 in 10.0 mi SSW 13.8 mph 20.7 mph N/A   Clear
1:55 AM 55.0 °F 50.7 °F 85% 30.03 in 10.0 mi South 10.4 mph - N/A   Clear
2:55 AM 54.7 °F 51.1 °F 88% 30.03 in 10.0 mi South 12.7 mph - N/A   Clear
3:55 AM 54.7 °F 51.6 °F 89% 30.02 in 10.0 mi South 13.8 mph 21.9 mph N/A   Clear
4:55 AM 53.6 °F 51.3 °F 92% 30.01 in 10.0 mi South 10.4 mph - N/A   Clear
5:55 AM 53.2 °F 51.3 °F 93% 30.03 in 10.0 mi South 12.7 mph - N/A   Partly Cloudy
6:05 AM 53.6 °F 51.8 °F 94% 30.03 in 10.0 mi South 11.5 mph - N/A   Mostly Cloudy
6:18 AM 53.6 °F 51.8 °F 94% 30.03 in 10.0 mi South 9.2 mph - N/A   Mostly Cloudy
6:29 AM 53.6 °F 51.8 °F 94% 30.04 in 10.0 mi SSW 9.2 mph - N/A   Scattered Clouds
6:55 AM 53.2 °F 50.9 °F 92% 30.04 in 10.0 mi SSW 10.4 mph - N/A   Scattered Clouds
7:55 AM 54.0 °F 51.4 °F 91% 30.07 in 10.0 mi SSW 8.1 mph - N/A   Clear
8:55 AM 58.5 °F 52.7 °F 81% 30.07 in 10.0 mi South 8.1 mph - N/A   Clear
9:55 AM 62.2 °F 52.9 °F 71% 30.07 in 10.0 mi SSW 15.0 mph - N/A   Clear
10:55 AM 66.2 °F 52.9 °F 62% 30.06 in 10.0 mi SSW 13.8 mph - N/A   Clear
11:55 AM 69.6 °F 51.8 °F 53% 30.03 in 10.0 mi South 13.8 mph - N/A   Clear
12:55 PM 72.7 °F 51.4 °F 47% 30.00 in 10.0 mi South 15.0 mph - N/A   Clear
1:55 PM 74.8 °F 50.4 °F 42% 29.97 in 10.0 mi South 13.8 mph - N/A   Clear
2:55 PM 76.3 °F 48.7 °F 38% 29.95 in 10.0 mi SSW 12.7 mph - N/A   Clear
3:55 PM 76.5 °F 49.5 °F 39% 29.94 in 10.0 mi SSW 11.5 mph - N/A   Clear
4:55 PM 74.7 °F 49.8 °F 42% 29.95 in 10.0 mi South 10.4 mph - N/A   Clear
5:55 PM 62.2 °F 48.4 °F 60% 29.96 in 10.0 mi South 6.9 mph - N/A   Clear
6:55 PM 60.1 °F 48.9 °F 67% 29.96 in 10.0 mi South 10.4 mph - N/A   Clear
7:55 PM 63.9 °F 49.5 °F 59% 29.96 in 10.0 mi South 10.4 mph - N/A   Clear
8:55 PM 63.1 °F 49.8 °F 62% 29.96 in 10.0 mi South 13.8 mph - N/A   Clear
9:55 PM 65.1 °F 50.0 °F 58% 29.96 in 10.0 mi South 10.4 mph - N/A   Clear
10:55 PM 65.7 °F 50.9 °F 59% 29.96 in 10.0 mi South 13.8 mph - N/A   Clear
11:55 PM 62.1 °F 50.7 °F 66% 29.97 in 10.0 mi South 6.9 mph - N/A   Clear